Regional Weather Roundup
Issued by NWS

Home | Current Version | Previous Version | Graphics & Text | Print | Product List | Glossary On
Versions: 1 2 3 4 5 6 7 8 9 10 11 12 13 14 15 16 17 18 19 20 21 22 23 24 25 26 27 28 29 30 31 32 33 34 35 36 37 38 39 40 41 42 43 44 45 46 47 48 49 50
000
ASUS43 KFSD 291702
RWRSD

WEATHER ROUNDUP FOR SOUTH DAKOTA
NATIONAL WEATHER SERVICE SIOUX FALLS SD
1200 PM CDT THU SEP 29 2016

NOTE: "FAIR" INDICATES FEW OR NO CLOUDS BELOW 12,000 FEET WITH NO
SIGNIFICANT WEATHER AND/OR OBSTRUCTIONS TO VISIBILITY.


SDZ001>005-009-010-012>017-291800-
NORTHWEST AND NORTH CENTRAL SOUTH DAKOTA

CITY           SKY/WX    TMP DP  RH WIND       PRES   REMARKS
BUFFALO          N/A     68  42  38 SE20      30.20F
FAITH            N/A     65  43  44 SE18      30.30F
MOBRIDGE       SUNNY     65  45  48 SE17      30.36F
$$

SDZ012>016-024>037-041>051-057-063-072>074-291800-
SOUTHWEST AND SOUTH CENTRAL SOUTH DAKOTA

CITY           SKY/WX    TMP DP  RH WIND       PRES   REMARKS
RAPID CTY ARPT SUNNY     68  41  37 S18       30.29F
PIERRE         LGT RAIN  64  45  49 SE20      30.37F
CUSTER         SUNNY     66  39  37 S12G22    30.38F
ELLSWORTH AFB  SUNNY     68  41  37 S18       30.28F
PHILIP         SUNNY     67  45  45 SE9       30.32F
PINE RIDGE     SUNNY     73  44  35 S14       30.33F
WINNER         FAIR      66  45  46 S16       30.41F
$$

SDZ004>011-016>023-039-040-291800-
NORTHEAST SOUTH DAKOTA

CITY           SKY/WX    TMP DP  RH WIND       PRES   REMARKS
ABERDEEN       SUNNY     63  46  54 S9G18     30.45F
WATERTOWN      CLOUDY    59  46  62 SE6       30.47F
SISSETON         N/A     62  44  51 S9        30.47F
$$

SDZ017-020-022-023-036>040-048>070-291800-
SOUTHEAST SOUTH DAKOTA

CITY           SKY/WX    TMP DP  RH WIND       PRES   REMARKS
SIOUX FALLS    MOSUNNY   62  48  60 VRB6      30.47F
HURON          SUNNY     62  48  60 S9        30.45F
CHAMBERLAIN    SUNNY     66  49  55 SE10      30.42F
MITCHELL         N/A     63  48  58 S9        30.47F
YANKTON        MOSUNNY   61  48  63 CALM      30.44F
$$

ABBREVIATIONS USED IN REMARKS
   TC - TEMPERATURE IN CELSIUS
  WCI - WIND CHILL INDEX
   HX - HEAT INDEX
  VSB - VISIBILITY





USA.gov is the U.S. government's official web portal to all federal, state and local government web resources and services.